Inquirer Daily News

Weather

Get conditions and forecasts for any City, State, ZIP code or Country:  
Trenton, NJ
on Friday, November 23, 2012

Friday
Previous Day Next Day
Daily Summary
 ActualAverageRecord
Temperature
Mean Temperature °F 43°F  
Max Temperature 57°F 52°F 72°F (1931)
Min Temperature 29°F 35°F 16°F (1880)
Degree Days
Heating Degree Days 22 22  
Month to date heating degree days 500 418  
Since 1 July heating degree days 807 815  
Cooling Degree Days 0 0  
Month to date cooling degree days 0 0  
Year to date cooling degree days 1234 965  
Moisture
Dew Point 35°F   
Average Humidity 74    
Maximum Humidity 100    
Minimum Humidity 47    
Precipitation
Precipitation T in 0.11 in 1.70 in (1875)
Month to date precipitation 0.58 2.42  
Year to date precipitation 32.63 41.85  
Wind
Wind Speed 3 mph   
Max Wind Speed 13 mph   
Max Gust Speed 16 mph   
Visibility 6 miles   
Events Fog   

Key: T is trace of precipitation, MM is missing value
Source: NWS Daily Summary
Time(EST)TemperatureDew PointHumidity Pressure Visibility Wind DirectionWind SpeedGust SpeedPrecipitationEvents Conditions
12:53 AM 34.0°F 30.9°F 89% 30.11 in 7.0 miles Calm Calm - N/A   Clear
1:53 AM 33.1°F 30.0°F 89% 30.11 in 6.0 miles Calm Calm - N/A   Clear
2:53 AM 33.1°F 30.0°F 89% 30.09 in 7.0 miles Calm Calm - N/A   Clear
3:53 AM 32.0°F 30.0°F 92% 30.07 in 6.0 miles Calm Calm - N/A   Clear
4:53 AM 32.0°F 28.9°F 88% 30.07 in 6.0 miles Calm Calm - N/A   Clear
5:53 AM 30.9°F 28.9°F 92% 30.05 in 5.0 miles Calm Calm - N/A   Clear
6:53 AM 30.0°F 28.0°F 92% 30.04 in 5.0 miles Calm Calm - N/A   Scattered Clouds
7:00 AM 30.2°F 28.4°F 93% 30.05 in 5.0 miles Calm Calm - N/A   Mostly Cloudy
7:21 AM 30.2°F 28.4°F 93% 30.03 in 1.8 miles Calm Calm - N/A   Overcast
7:35 AM 30.2°F 28.4°F 93% 30.03 in 0.2 miles Calm Calm - N/A Fog Light Freezing Fog
7:53 AM 32.0°F 30.9°F 96% 30.02 in 0.2 miles Calm Calm - N/A Fog Fog
8:53 AM 37.0°F 37.0°F 100% 30.01 in 0.5 miles Calm Calm - N/A Fog Fog
9:07 AM 37.4°F 37.4°F 100% 30.02 in 2.0 miles Calm Calm - N/A   Mostly Cloudy
9:20 AM 37.4°F 37.4°F 100% 30.02 in 1.8 miles Calm Calm - N/A   Mostly Cloudy
9:50 AM 41.0°F 39.2°F 93% 30.01 in 2.0 miles Calm Calm - N/A   Scattered Clouds
9:53 AM 42.1°F 39.9°F 92% 29.99 in 3.0 miles Calm Calm - N/A   Partly Cloudy
10:53 AM 48.0°F 42.1°F 80% 29.96 in 5.0 miles SW 4.6 mph - N/A   Haze
11:53 AM 53.1°F 41.0°F 64% 29.91 in 9.0 miles SW 8.1 mph - N/A   Clear
12:53 PM 55.0°F 39.0°F 55% 29.87 in 10.0 miles WSW 8.1 mph - N/A   Clear
1:53 PM 55.9°F 35.1°F 45% 29.83 in 10.0 miles SSW 9.2 mph - N/A   Clear
2:53 PM 57.0°F 37.0°F 47% 29.80 in 10.0 miles SSW 8.1 mph - N/A   Clear
3:53 PM 55.0°F 35.1°F 47% 29.77 in 10.0 miles SW 5.8 mph - N/A   Clear
4:53 PM 54.0°F 35.1°F 49% 29.77 in 10.0 miles West 3.5 mph - N/A   Clear
5:53 PM 51.1°F 37.0°F 59% 29.75 in 10.0 miles SW 4.6 mph - N/A   Mostly Cloudy
6:53 PM 53.1°F 37.0°F 55% 29.76 in 10.0 miles West 4.6 mph - N/A   Overcast
7:53 PM 51.1°F 39.9°F 66% 29.74 in 10.0 miles SW 4.6 mph - N/A   Overcast
8:53 PM 50.0°F 41.0°F 71% 29.73 in 10.0 miles SW 5.8 mph - 0.00 in   Overcast
9:53 PM 48.9°F 42.1°F 77% 29.71 in 10.0 miles SW 3.5 mph - 0.00 in   Overcast
10:53 PM 48.0°F 42.1°F 80% 29.70 in 9.0 miles SW 3.5 mph - N/A   Overcast
11:53 PM 50.0°F 39.0°F 66% 29.69 in 10.0 miles NW 6.9 mph - N/A   Overcast
Astronomy
Sunrise:06:54 AM (EST) Moon Rise:01:50 PM (EST)11/23
Sunset:04:36 PM (EST) Moon Set:02:10 AM (EST)11/23
Moon Phase
Nov. 23 Nov. 28 Dec. 06 Dec. 13 Dec. 20

Copyright © 2014 The Weather Underground, Inc.